RADUGA 31 [-]

Last updated on Jan. 18, 2020, 4:38 a.m. UTC

1 23010U 94012A   20017.59678542  .00000101  00000-0  00000+0 0  9999
2 23010  14.8974   7.1315 0005227  12.4111 355.5814  1.00274522 94843
UTC
Height (km)
Latitude
Longitude
Inclination
Orbital Period
UTC large
Height (km)
Speed (km/s)
/
Latitude / Longitude
Inclination (degrees)
Orbital Period (minutes)
Azimuth
Elevation
Range (km)
Doppler Factor
iOS Compass Heading
iOS Angle

Next 30 passes for location: Hong Kong

Rise time Rise Azimuth (degrees) Set time Set Azimuth (degrees) Duration Max altitude (degrees)

No matching passes for this satellites